Find Starlink 36986

NORAD ID: 68207 Int'l Des: 2026-053 Owner: SPXS Country: US Constellation: starlink operational
LEOCIRCULARRETROGRADE

リアルタイム位置

3D地球を読み込み中...

Starlink 36986について

説明を読み込み中...

次回通過

Passes for default location (London). Set your location on the main map for personalized predictions.

高度履歴

Loading altitude history...

軌道要素

1 68207U 26053A 26122.19263841 .00014928 00000-0 46392-3 0 9997
2 68207 97.2846 357.9094 0001806 90.4472 269.6978 15.33436658 8413
Epoch: May 2, 2026 • Age: 4 hours

現在のステータス

高度 485.8 km
速度 7.62 km/s
衛星直下点 -49.68°S, 9.85°E
打ち上げ日 Mar 17, 2026
運用期間 0.1 years
タイプ internet

技術仕様

分類 Payload
質量 575.00 kg
乾燥質量 530.00 kg
総質量 575.00 kg
長さ 0.30 m
直径 4.10 m
スパン 29.00 m
形状 Box + pan
製造者 SPXS
バスタイプ Starlink V2MO
フェーズステータス In Orbit
所有者/国 SPXS/US

Most Searched